Location: Frauenberg
(49.0538°N, 14.4545°E)
Time: 15:41:52
(UTC+00:00)

Daily predictions for brighter satellites

Satellite Brightness Start Highest point End
(mag) Time Altitude Azimuth Time Altitude Azimuth Time Altitude Azimuth
Cosmos 1184 Rocket 3.0 19:28:51 10° SSE 19:31:43 41° E 19:34:35 10° NNE
Cosmos 1503 Rocket 4.4 19:28:58 10° S 19:33:58 46° ESE 19:39:03 10° NNE
SL-16 R/B 4.0 19:32:59 10° ESE 19:35:22 13° E 19:37:45 10° ENE
Cosmos 968 Rocket 4.3 19:30:35 10° SW 19:35:38 56° WNW 19:40:42 10° NNE
Cosmos 405 3.9 19:34:01 10° NNW 19:37:18 46° W 19:40:35 10° S
ERS-1 Rocket 4.0 19:33:11 10° SE 19:37:37 33° ENE 19:42:06 10° N
Cosmos 389 Rocket 2.4 19:34:36 10° N 19:38:07 85° ENE 19:41:38 10° SSE
Cosmos 1933 Rocket 3.6 19:36:04 10° N 19:40:34 78° E 19:45:01 10° SSE
EXPRESS MD2 4.3 19:36:33 10° WNW 19:42:50 45° SW 19:46:11 10° SE
CZ-4B R/B 1.4 19:41:15 10° N 19:44:28 78° WNW 19:47:36 10° SSW
Cosmos 1515 3.7 19:41:21 10° S 19:45:07 86° W 19:48:55 10° N
SPOT 1/Viking Rocket 3.7 19:41:17 10° S 19:46:28 78° WSW 19:51:39 10° NNW
Helios 1A Rocket 3.4 19:43:03 10° SE 19:46:51 43° ENE 19:50:41 10° N
Meteor 1-27 Rocket 3.9 19:42:08 10° S 19:47:55 88° E 19:53:52 10° NNE
Cosmos 2219 4.3 19:47:00 10° NW 19:52:15 41° WSW 19:57:27 10° S
Cosmos 2034 Rocket 4.1 19:46:37 10° S 19:52:47 61° E 19:59:02 10° NNE
Cosmos 2292 Rocket 4.1 19:50:27 10° NNE 19:52:59 23° ENE 19:55:06 12° SE
SJ 16-02 1.7 19:50:36 10° S 19:54:43 43° ESE 19:58:53 10° NNE
Cosmos 2278 4.2 19:50:01 10° S 19:55:15 40° ESE 20:00:31 10° NE
Cosmos 1340 2.8 19:51:46 10° SSW 19:55:30 78° WNW 19:59:15 10° N
Cosmos 2082 4.0 19:53:38 10° NNW 19:59:14 66° WSW 20:04:47 10° SSE
Cosmos 482 Debris 3.8 19:59:27 10° WNW 20:02:09 72° SSW 20:05:53 12° ESE
Cosmos 2263 Rocket 2.3 19:56:50 10° NNW 20:02:27 73° ENE 20:07:29 13° SE
Cosmos 1743 3.7 20:01:48 10° NNW 20:05:25 45° W 20:09:02 10° SSW
Ariane Rocket 3.6 20:01:24 10° S 20:06:22 56° W 20:11:24 10° NNW
NOSS 2-1 (D) 4.4 20:09:53 16° SE 20:10:46 17° ESE 20:12:59 10° ENE
SPOT 5 3.1 20:06:30 12° SSE 20:11:25 68° ENE 20:16:30 10° N
BREEZE-M DEB (TANK) 1.7 20:09:56 10° W 20:12:26 79° N 20:14:41 10° E
Terra 2.3 20:09:04 14° SE 20:13:01 48° ENE 20:17:36 10° N
Resurs 01 Rocket 3.2 20:11:18 10° SSW 20:15:15 32° W 20:19:15 10° NNW
Cosmos 1346 Rocket 3.9 20:15:00 16° SE 20:17:28 29° E 20:20:59 10° NNE
Aureole 1 Rocket 3.8 20:14:50 10° SW 20:17:46 37° WNW 20:20:35 10° N
Cosmos 2227 Rocket 4.1 20:15:33 10° NW 20:19:56 23° WSW 20:24:16 10° SSW
Cosmos 921 Rocket 3.9 20:16:59 10° NNW 20:21:20 47° WSW 20:25:37 10° S
Geosat FO 4.4 20:23:26 18° SSE 20:25:50 78° WSW 20:29:10 10° NNW
Cosmos 1869 Rocket 3.9 20:26:06 10° NNW 20:30:35 68° W 20:34:33 13° S
CARTOSAT-1 4.4 20:26:29 10° S 20:30:37 45° W 20:34:48 10° NNW
Cosmos 1980 Rocket 2.4 20:25:07 10° SSW 20:30:45 76° WNW 20:36:28 10° NNE
SL-24 R/B - RUBIN 2 3.6 20:27:02 10° NW 20:31:26 84° NE 20:34:40 19° SE
Cosmos 2228 Rocket 3.1 20:29:19 10° S 20:33:53 90° E 20:38:27 10° N
Cosmos 1378 3.0 20:34:31 15° S 20:37:25 76° E 20:41:05 10° NNE
Cosmos 2344 3.6 20:31:48 10° SW 20:39:15 82° NW 20:47:09 10° NE
Cosmos 2322 Rocket 3.1 20:36:17 18° SSE 20:39:22 29° ESE 20:44:09 10° NE
Cosmos 1777 Rocket 3.9 20:34:39 10° SSW 20:39:52 83° ESE 20:45:09 10° NNE
ISS -3.4 20:36:39 10° WNW 20:39:54 48° SSW 20:41:27 26° SSE
Spot 2 Rocket 3.7 20:35:42 14° S 20:40:01 68° WSW 20:45:04 10° NNW
Cosmos 2369 4.4 20:34:57 10° SW 20:40:31 58° WNW 20:46:08 10° NNE
Cosmos 1354 Rocket 4.5 20:35:55 10° SW 20:41:10 65° WNW 20:46:28 10° NNE
SPOT 3 Rocket 4.4 20:36:25 10° S 20:41:19 44° W 20:46:15 10° NNW
Cosmos 1844 Rocket 3.7 20:36:44 10° NNW 20:41:56 38° NE 20:46:18 14° ESE
ATLAS 2AS CENTAUR R/B 2.9 20:36:08 10° SW 20:43:57 83° SE 20:51:30 10° NE
Cosmos 2333 Rocket 4.1 20:43:20 11° ESE 20:44:35 12° E 20:46:32 10° ENE
Okean 1 4.3 20:41:24 10° SSW 20:45:16 47° WNW 20:49:11 10° N
Meteor 2-4 Rocket 3.7 20:40:22 12° S 20:45:42 73° E 20:51:20 10° NNE
Cosmos 1092 Rocket 4.1 20:40:40 10° NNW 20:46:52 76° W 20:52:05 15° S
RESURS DK-1 2.5 20:45:26 10° SW 20:49:32 74° WNW 20:53:41 10° NNE
SL-4 R/B 4.4 20:48:21 10° WSW 20:50:05 12° SW 20:51:46 10° SSW
Cosmos 1805 4.2 20:47:52 10° N 20:51:29 35° ENE 20:53:18 23° ESE
USA 267 4.1 20:46:43 10° E 20:52:59 50° NNE 20:59:15 10° WNW
Cosmos 1634 Rocket 4.0 20:49:58 12° S 20:55:43 85° E 21:01:56 10° N
ARIANE 5 R/B 2.7 20:53:39 22° S 20:56:33 83° WSW 21:01:06 10° NNW
Cosmos 1707 Rocket 3.5 20:54:12 17° S 20:57:35 87° E 21:02:01 10° N
ATLAS CENTAUR R/B 3.1 20:53:15 10° NNW 20:57:43 33° NE 21:01:50 11° E
Cosmos 44 Rocket 3.6 20:54:11 10° NW 20:58:48 55° WSW 21:01:28 24° S
Cosmos 2219 Rocket 4.0 21:03:06 12° ESE 21:04:10 13° E 21:06:32 10° ENE
Meteor 2-15 Rocket 4.5 21:00:05 19° S 21:04:26 65° E 21:10:28 10° NNE
Cosmos 1733 3.6 21:01:19 10° N 21:05:01 48° ENE 21:06:32 29° SE
Cosmos 1844 4.4 20:59:54 10° NNW 21:05:31 47° NE 21:09:35 18° ESE
ATLAS 3B R/B 2.9 21:00:44 10° NW 21:08:06 82° SW 21:13:24 22° SSE
NOSS 2-1 (E) 2.7 21:08:10 25° SSW 21:09:51 61° SE 21:13:05 10° NE
CSL-04 DEB 4.3 21:06:35 10° NNE 21:10:34 75° ESE 21:12:49 25° S
Cosmos 1975 3.8 21:07:03 10° NNW 21:10:54 42° W 21:13:33 18° SSW
Cosmos 2026 Rocket 4.4 21:06:01 10° NNW 21:12:04 59° W 21:17:00 16° SSW
USA 81 4.2 21:09:01 16° SSW 21:13:13 74° W 21:18:32 10° N
Cosmos 1655 Rocket 4.4 21:09:27 10° N 21:15:32 51° ENE 21:19:13 23° SE
ERS-1 Rocket 4.0 21:12:32 15° SSW 21:16:21 39° W 21:21:04 10° NNW
Meteor 1-4 Rocket 2.4 21:14:57 10° N 21:18:26 76° ENE 21:19:36 39° SSE
SL-16 R/B 2.1 21:13:28 13° SSW 21:18:28 76° ESE 21:24:10 10° NNE
CZ-4C R/B 3.8 21:13:31 10° NW 21:19:58 44° NE 21:27:39 10° ESE
Cosmos 2237 4.4 21:16:27 22° S 21:20:02 55° ESE 21:25:38 10° NE
Cosmos 1538 Rocket 4.5 21:16:13 10° NNW 21:21:19 53° WSW 21:24:18 24° S
GENESIS II 4.3 21:21:10 10° SW 21:25:00 77° NW 21:28:58 10° NE
Meteor 2-10 4.1 21:19:54 10° N 21:25:12 67° ENE 21:27:49 29° SSE
Cosmos 1733 Rocket 3.6 21:20:53 10° NNW 21:25:15 53° W 21:27:44 24° SSW
GRACE-FO 1 4.5 21:23:28 10° N 21:27:07 86° W 21:28:27 37° S
GRACE-FO 2 4.5 21:23:54 10° N 21:27:32 85° W 21:28:53 37° S
Geosat 4.1 21:28:35 29° SSE 21:31:10 68° WSW 21:36:12 10° NNW
SAR-Lupe-4 3.7 21:28:01 10° N 21:31:38 69° WNW 21:33:22 28° SSW
OE (NEXTSAT) 4.4 21:29:00 10° WSW 21:32:08 49° S 21:32:08 49° S
ERS-2 4.1 21:30:13 10° NE 21:32:25 15° E 21:32:29 15° E
SJ 16-02 3.6 21:29:52 10° WSW 21:33:28 24° NW 21:37:06 10° N
Meteor 1-15 Rocket 4.4 21:29:18 10° N 21:34:56 62° ENE 21:37:56 28° SSE
Cosmos 1356 3.2 21:35:10 48° S 21:35:59 87° E 21:39:19 10° NNE
Cosmos 1908 Rocket 3.5 21:32:34 10° N 21:36:56 76° E 21:38:37 36° SSE
COSMOS 2428 4.3 21:35:55 16° ESE 21:37:05 17° E 21:40:38 10° ENE
Cosmos 923 Rocket 4.0 21:34:11 10° NNW 21:39:33 81° WSW 21:42:10 31° SSE
Cosmos 1862 Rocket 4.1 21:37:31 20° SSW 21:40:25 56° WNW 21:44:52 10° N
Cosmos 1470 4.1 21:39:10 10° N 21:42:34 28° ENE 21:43:46 24° ESE
Cosmos 2360 Rocket 2.3 21:40:43 28° S 21:43:33 58° ESE 21:49:05 10° NE
Cosmos 1726 2.2 21:40:35 10° N 21:44:14 62° ENE 21:45:09 44° SE
Cosmos 1937 Rocket 3.9 21:42:39 31° SSE 21:44:34 45° ESE 21:49:36 10° NE
Cosmos 2242 Rocket 4.1 21:43:56 34° SE 21:45:26 47° E 21:49:48 10° NNE
Cosmos 2263 Rocket 4.0 21:41:47 10° NW 21:45:47 20° W 21:49:11 12° SW
ALOS 2 3.5 21:44:37 26° ESE 21:46:30 39° ENE 21:50:35 10° N
Meteor 1-13 Rocket 4.1 21:44:29 26° S 21:47:45 89° E 21:53:19 10° NNE
Cosmos 2266 Rocket 3.9 21:41:43 10° N 21:48:01 86° E 21:51:20 30° S
NOSS 2-1 (C) 3.9 21:47:12 10° WSW 21:50:19 44° NW 21:53:31 10° NNE
Terra 3.6 21:47:56 13° SW 21:51:01 23° W 21:54:50 10° NW
Cosmos 1441 Rocket 4.0 21:51:04 24° SW 21:52:54 45° WNW 21:56:30 10° N
USA 215 3.4 21:52:51 10° ENE 21:59:13 51° SE 22:03:43 20° SSW
ATLAS 5 CENTAUR R/B 4.5 21:38:12 10° WNW 21:59:51 61° NNE 22:05:08 10° ESE
Cosmos 2112 Rocket 4.0 21:54:46 10° NNW 22:00:08 83° WSW 22:02:27 35° SSE
NOSS 2-1 (D) 4.3 21:57:49 10° WSW 22:00:50 36° NW 22:03:57 10° NNE
Cosmos 1680 Rocket 3.6 21:55:54 10° NNW 22:01:12 71° WSW 22:03:26 35° S
Cosmos 990 Rocket 4.2 21:57:54 20° SW 22:01:32 71° WNW 22:06:48 10° NNE
Cosmos 2278 Rocket 3.9 21:56:51 10° NNW 22:01:40 27° NE 22:06:28 10° ESE
Cosmos 1626 4.4 22:03:15 13° E 22:03:38 13° E 22:05:26 10° NE
Cosmos 1842 3.5 22:03:47 46° SE 22:04:31 54° E 22:08:19 10° NNE
Meteor 1-22 Rocket 4.4 22:01:59 10° N 22:07:57 78° ENE 22:10:54 32° SSE
ADEOS Rocket 3.4 22:05:31 25° SE 22:08:39 51° ENE 22:14:32 10° N
Spot 4 3.8 22:07:13 38° S 22:09:06 83° WSW 22:13:55 10° NNW
Cosmos 1818 3.6 22:04:25 10° NW 22:09:53 71° SW 22:12:08 36° SSE
Iridium 4 Rocket 3.4 22:07:11 10° N 22:11:44 70° W 22:13:44 35° SSW
Cosmos 1898 Rocket 3.6 22:11:50 26° SSW 22:14:52 80° WNW 22:20:14 10° NNE
Sich 1 Rocket 4.5 22:10:49 10° N 22:14:58 39° ENE 22:16:32 29° ESE
Cosmos 858 Rocket 4.5 22:13:36 35° S 22:15:50 73° ESE 22:21:08 10° NNE
Cosmos 1674 4.3 22:16:06 21° E 22:16:30 22° E 22:19:26 10° NE
Cosmos 1900 4.3 22:15:19 30° SSW 22:17:51 81° SE 22:23:00 10° NE
Okean 1-7 3.4 22:17:25 32° SW 22:19:14 58° WNW 22:23:34 10° N
Cosmos 1758 4.3 22:18:13 10° N 22:21:57 37° ENE 22:23:04 30° ESE
Cosmos 2322 Rocket 2.9 22:18:02 12° SW 22:23:08 52° NW 22:28:38 10° NNE
Cosmos 1844 Rocket 3.3 22:20:39 10° NW 22:25:55 43° WSW 22:27:57 31° SSW
Okean 3 3.7 22:25:02 38° SW 22:26:29 63° WNW 22:30:43 10° N
Cosmos 2322 4.0 22:25:29 35° SSE 22:27:33 54° ESE 22:33:08 10° NE
Cosmos 2333 Rocket 2.2 22:25:17 34° S 22:27:47 72° ESE 22:33:28 10° NNE
H-2A R/B 3.3 22:27:06 10° NNE 22:31:12 85° WNW 22:32:21 47° SSW
SL-08 ROCKET BODY 4.3 22:26:09 10° N 22:32:04 80° E 22:34:42 35° SSE
Cosmos 1461 3.0 22:28:16 10° NW 22:32:25 74° NE 22:33:55 39° SE
BREEZE-M DEB (TANK) 4.3 22:30:54 10° WSW 22:31:52 17° WSW 22:31:52 17° WSW
ATLAS 2AS CENTAUR R/B 4.3 22:28:31 10° W 22:35:40 39° NNW 22:42:31 10° NE
USA 267 3.2 22:29:45 13° ESE 22:35:44 90° N 22:42:19 10° NW
USA 229 DEB 4.2 22:28:33 10° NW 22:35:47 66° NE 22:43:19 11° SE
USA 229 4.2 22:28:39 10° NW 22:35:52 65° NE 22:43:27 11° SE
ATLAS CENTAUR R/B 1.9 22:32:01 10° NW 22:36:46 53° WSW 22:37:50 43° SSW
ASTEX 1 4.2 22:32:16 10° NNE 22:36:54 39° E 22:38:32 30° SE
NOSS 2-2 (E) 4.4 22:39:46 10° NW 22:44:40 71° NE 22:50:00 17° SE
Cosmos 1244 Rocket 4.5 22:38:51 10° N 22:45:13 85° E 22:48:12 34° SSE
Cosmos 1553 Rocket 4.2 22:43:37 32° SSE 22:46:19 57° E 22:52:23 10° NNE
Cosmos 2219 Rocket 2.1 22:44:48 36° SSW 22:47:09 77° ESE 22:52:45 10° NNE
Nadezhda 2 Rocket 4.4 22:41:51 10° N 22:48:03 89° W 22:50:51 35° S
Cosmos 2221 Rocket 3.8 22:51:05 43° SE 22:52:11 55° E 22:56:31 10° NNE
Cosmos 372 Rocket 4.1 22:51:17 32° SW 22:53:42 71° WNW 22:58:53 10° NNE
Cosmos 494 Rocket 4.2 22:49:18 10° NNW 22:54:24 65° ENE 22:56:50 30° SE
Cosmos 1048 Rocket 4.1 22:49:38 10° NNW 22:54:50 71° ENE 22:57:08 33° SE
ATLAS 3B R/B 4.3 22:52:39 10° WNW 22:57:56 21° WSW 23:00:38 18° SW
Cosmos 1707 2.8 23:00:36 52° SW 23:01:22 67° W 23:05:15 10° N
Cosmos 1378 Rocket 4.1 23:00:50 37° SE 23:01:59 46° E 23:06:15 10° NNE
NOSS 3-1 (A) 4.0 22:55:06 10° NW 23:02:29 84° SW 23:08:57 20° SE
SL-16 R/B 4.2 22:58:34 10° W 23:03:12 25° NW 23:07:51 10° NNE
USA 308 4.3 23:05:02 23° ESE 23:05:02 23° ESE 23:07:31 10° E
Cosmos 1125 Rocket 4.2 23:03:17 31° SE 23:04:49 39° ESE 23:09:38 10° NE
ERS-2 2.8 23:02:33 10° N 23:06:02 46° WNW 23:06:52 37° WSW
Okean 2 3.3 23:06:39 55° S 23:07:32 89° W 23:11:39 10° N
Cosmos 1300 4.3 23:04:23 10° NNE 23:07:38 27° ENE 23:09:06 21° ESE
CZ-4C R/B 3.0 23:01:54 10° NW 23:09:04 70° SW 23:14:17 25° SSE
NOSS 3-1 (C) 4.3 23:02:26 10° NW 23:09:40 54° WSW 23:14:03 29° S
USA 290 2.1 23:10:46 76° E 23:10:46 76° E 23:13:54 10° NNE
Cosmos 1238 Rocket 2.1 23:09:05 10° N 23:11:57 82° N 23:11:57 82° N
Gblst 52 Del rocket 4.3 23:10:15 10° WSW 23:16:32 81° NNW 23:22:11 10° ENE
Cosmos 2237 Rocket 3.0 23:14:56 29° SSE 23:16:52 38° ESE 23:22:05 10° NE
KORONAS-FOTON 3.8 23:16:49 56° SW 23:17:28 71° W 23:21:18 10° N
Cosmos 1470 4.2 23:15:14 10° NNW 23:18:26 25° W 23:19:01 24° WSW
SL-14 R/B 4.1 23:18:00 34° ESE 23:18:46 38° E 23:22:23 10° NNE
COSMOS 2428 2.7 23:17:53 33° SSW 23:20:34 85° WNW 23:26:18 10° NNE
NOSS 2-2 (D) 4.2 23:15:44 10° NW 23:20:39 87° SW 23:25:35 19° SE
ERBS 4.4 23:23:11 15° E 23:23:11 15° E 23:24:03 10° E
Cosmos 1745 Rocket 4.0 23:15:38 10° N 23:21:54 83° E 23:25:01 32° SSE
PSLV R/B 3.5 23:17:54 10° NNE 23:22:18 89° E 23:23:40 45° SSW
Cosmos 2151 Rocket 3.6 23:18:27 10° NNW 23:22:49 65° W 23:23:57 46° SSW
Resurs 1-4 Rocket 4.2 23:19:41 10° NE 23:22:53 16° E 23:25:56 10° SE
ALOS 2 4.0 23:22:00 23° WSW 23:22:57 25° W 23:26:37 10° NW
Cosmos 1242 Rocket 3.3 23:22:33 10° NNW 23:25:55 37° W 23:26:07 37° WSW
USA 305 3.3 23:26:44 41° SE 23:26:44 41° SE 23:30:38 10° ENE
Okean 2 Rocket 3.5 23:22:28 10° NNW 23:26:53 52° W 23:28:05 40° SW
Cosmos 2360 Rocket 3.8 23:22:57 10° WSW 23:27:53 30° NW 23:32:53 10° NNE
Cosmos 405 Rocket 2.5 23:28:20 60° S 23:28:56 82° E 23:32:45 10° NNE
Cosmos 1943 Rocket 3.7 23:25:13 10° NNW 23:30:25 35° NE 23:35:35 10° ESE
Cosmos 1437 Rocket 2.5 23:29:07 10° NNW 23:32:54 87° W 23:33:33 59° S
Nimbus 7 Rocket 4.4 23:27:26 10° NNE 23:33:19 78° WNW 23:36:12 32° SSW
Cosmos 1908 3.5 23:30:38 10° NNW 23:34:18 50° W 23:34:48 46° WSW
Cosmos 2298 Rocket 4.0 23:34:33 38° S 23:36:35 72° ESE 23:41:54 10° NNE
Cosmos 1867 3.7 23:33:44 28° SW 23:36:41 76° NW 23:42:12 10° NE
Cosmos 1626 2.5 23:37:36 43° WSW 23:38:15 50° WNW 23:41:51 10° N
GP-B 3.9 23:35:56 10° NNE 23:40:12 44° E 23:42:03 28° SE
Thor Agena Rocket 4.5 23:36:19 10° NNE 23:41:16 39° E 23:43:43 25° SSE
USA 215 3.5 23:35:54 10° NE 23:42:24 68° NNW 23:48:54 10° WSW
Cosmos 1953 2.2 23:39:50 10° NNW 23:43:51 75° W 23:44:46 51° SSW
Cosmos 2278 Rocket 2.2 23:40:36 10° NNW 23:46:15 67° WSW 23:48:51 32° S
EO 1 Delta rocket 4.4 23:44:28 10° NNE 23:49:04 54° E 23:51:24 30° SSE
Cosmos 1674 3.9 23:50:45 27° WSW 23:51:43 30° WNW 23:55:06 10° N
ADEOS Rocket 4.0 23:52:27 23° SW 23:54:33 29° W 23:59:42 10° NNW
